Date,TemperatureHighF,TemperatureAvgF,TemperatureLowF,DewpointHighF,DewpointAvgF,DewpointLowF,HumidityHigh,HumidityAvg,HumidityLow,PressureMaxIn,PressureMinIn,WindSpeedMaxMPH,WindSpeedAvgMPH,GustSpeedMaxMPH,PrecipitationSumIn
2014-4-1,42,32,22,24,20,15,76,61,47,30.16,29.98,22,3,22,0.00
2014-4-2,40,36,30,35,27,20,91,71,59,30.07,29.79,18,4,18,0.00
2014-4-3,37,35,32,35,33,30,99,93,88,29.99,29.75,24,5,24,0.20
2014-4-4,50,37,31,32,28,24,88,70,43,30.19,29.99,30,5,30,0.01
2014-4-5,65,47,31,35,30,27,89,57,29,30.12,29.87,29,5,30,0.00
2014-4-6,64,53,45,42,39,31,90,60,40,29.90,29.71,22,4,22,0.11
2014-4-7,58,46,37,43,39,33,94,76,45,30.02,29.77,23,4,32,0.03
2014-4-8,60,48,35,34,29,23,85,52,28,30.14,30.01,22,3,23,0.00
2014-4-9,84,62,41,44,33,23,56,37,19,30.04,29.56,18,3,19,0.00
2014-4-10,65,57,49,40,33,25,64,42,29,29.96,29.55,29,4,34,0.00
2014-4-11,76,60,43,41,34,28,57,39,26,30.02,29.69,20,2,20,0.00
2014-4-12,76,66,53,58,50,37,85,58,40,29.69,29.45,24,4,24,0.00
2014-4-13,60,41,29,43,34,23,93,79,46,30.06,29.55,34,10,35,0.41
2014-4-14,44,33,26,30,22,16,77,65,49,30.33,30.04,30,6,31,0.02
2014-4-15,62,43,25,32,27,20,92,58,27,30.24,29.71,25,4,28,0.00
2014-4-16,58,46,33,40,29,24,74,54,40,30.16,29.57,31,8,31,0.00
2014-4-17,56,40,30,31,27,23,77,60,36,30.35,30.15,19,3,19,0.00
2014-4-18,69,53,38,47,39,28,82,59,43,30.23,29.94,31,5,31,0.00
2014-4-19,78,64,52,55,49,42,73,59,43,29.96,29.83,22,4,23,0.00
2014-4-20,77,65,53,58,53,47,81,65,46,29.92,29.80,17,2,19,0.05
2014-4-21,71,62,55,56,41,30,92,51,22,30.11,29.86,24,4,25,0.30
2014-4-22,70,57,41,39,35,31,73,45,30,30.11,29.81,24,4,27,0.00
2014-4-23,79,60,50,58,46,35,93,62,44,29.81,29.38,35,8,35,1.03
2014-4-24,70,58,49,54,40,27,94,57,20,29.78,29.54,26,4,26,0.75
2014-4-25,78,61,42,47,40,34,78,49,26,29.79,29.67,24,3,27,0.00
2014-4-26,81,65,51,61,51,43,75,61,43,29.68,29.26,27,5,28,0.00
2014-4-27,74,67,52,62,53,36,87,65,26,29.26,29.01,28,6,31,0.00
2014-4-28,52,45,38,45,40,35,89,83,74,29.50,29.07,35,8,35,0.11
2014-4-29,42,38,36,38,35,33,91,87,79,29.98,29.49,29,10,32,0.33
2014-4-30,50,45,37,37,30,25,85,57,38,30.06,29.99,29,9,30,0.00